Location: Erp
(42.9417°N, 1.2009°E)
Time: 10:25:17
(UTC+00:00)

Cosmos 1953 - Pass Details

Date: 12 January 2026
Orbit: 474 x 489 km, 82.5° (Epoch: 10 February)

Event Time Altitude Azimuth Distance (km) Brightness Sun altitude
Rises 18:49:39 0° 340° (NNW) 2,582 5.9 -22.7°
Reaches altitude 10° 18:51:58 10° 328° (NNW) 1,696 5.1 -23.1°
Maximum altitude 18:55:09 27° 269° (W) 967 4.2 -23.7°
Drops below altitude 10° 18:58:19 10° 210° (SSW) 1,683 5.2 -24.3°
Sets 19:00:36 0° 198° (SSW) 2,558 6.1 -24.7°
